Погода в Шереметьево

Россия / Московская область     55°58′00″N   37°24′56″E
темп.,
°C
ветер,
м/с
пор.,
м/с
влажн.,
%
обл.,
%
осадки,
мм/ч
давл.,
гПа
погр.,
м
21 апреля, ср
ср2100:00+2в4997100 0.9 1012580
03:00+2св3898100 1.9 1009470
06:00+1св2599100 3.0 1004198
09:00+2з2299100 4.8 1003171
12:00+2юз4789100 0.1 1005730
15:00+3зюз4784100 0.2 1007873
18:00+4юз3783100 0.0 1008597
21:00+4ююз3789100 0.1 1010259
22 апреля, чт
чт2200:00+4ююз3791100 0.0 1011228
03:00+4ю379383 0.1 1012259
06:00+3ю4109496 0.0 1012326
09:00+6ююз5981100 0.0 1013534
12:00+10ююз6870100 0.0 10141105
15:00+13ююз675750 0.1 10141603
18:00+11ю586618 0.1 1014863
21:00+9ююв51183100 0.3 1014365
23 апреля, пт
пт2300:00+8ю4108968 0.3 1014329
03:00+7ю4119375 0.3 1014306
06:00+7ю5149137 0.0 1013446
09:00+11ю6137099 0.1 1013945
12:00+15ю8155447 0.3 10122079
15:00+14ююз81358100 1.4 10122122
18:00+9юз4682100 1.4 1013596
21:00+7с1189100 2.9 1012195
24 апреля, сб
сб2400:00+5сз4593100 4.3 1010277
03:00+3зсз3495100 11.8 1008452
06:00+1зсз2599100 8.4 1008261
09:00+3з3797100 11.1 1008539
12:00+5з3784100 1.1 1008667
15:00+9зюз675071 1.5 10071952
18:00+7з47555 0.2 1007949
21:00+3з37775 0.3 1008229
25 апреля, вс
вс2500:00+2зюз410805 0.0 1008271
03:000зюз49905 0.0 1008306
06:000зюз499318 0.0 1009385
09:00+4зюз586979 0.0 10081147
12:00+5з685996 0.1 10091629
15:00+7з685499 0.4 10091721
18:00+5зюз576295 0.3 10091255
21:00+2зюз38755 0.3 1011374